,,PA_Meas_PMT16A,,PR_Meas_QMR101_102,,RH_Meas_QMH101,,SR_Meas_QMS101,,TA_Meas_QMH101,,GenWind,,GenWind,
time,status,PA,status,PR,status,RH,status,SR,status,TA,status,DirAvg,status,SpdAvg,
2012-11-14, 00:00:04,VALID,918.083,VALID,0,VALID,97.0994,VALID,0,VALID,19.0427,VALID,356,VALID,0,
2012-11-14, 00:01:04,VALID,918.066,VALID,0,VALID,97.0994,VALID,0,VALID,19.0622,VALID,356,VALID,0,
2012-11-14, 00:02:04,VALID,918.073,VALID,0,VALID,97.1223,VALID,0,VALID,19.0817,VALID,356,VALID,0,
2012-11-14, 00:03:04,VALID,918.065,VALID,0,VALID,97.1299,VALID,0,VALID,19.0608,VALID,356,VALID,0,
2012-11-14, 00:04:04,VALID,918.042,VALID,0,VALID,97.1147,VALID,0,VALID,19.0803,VALID,356,VALID,0,
2012-11-14, 00:05:04,VALID,918.028,VALID,0,VALID,97.1223,VALID,0,VALID,19.0817,VALID,356,VALID,0,
2012-11-14, 00:06:04,VALID,918,VALID,0,VALID,97.1452,VALID,0,VALID,19.0622,VALID,356,VALID,0,
2012-11-14, 00:07:04,VALID,918.03,VALID,0,VALID,97.1452,VALID,0,VALID,19.0622,VALID,356,VALID,0,
2012-11-14, 00:08:04,VALID,917.993,VALID,0,VALID,97.1147,VALID,0,VALID,19.0427,VALID,356,VALID,0,
2012-11-14, 00:09:04,VALID,918.006,VALID,0,VALID,97.1223,VALID,0,VALID,19.0622,VALID,356,VALID,0,
2012-11-14, 00:10:04,VALID,917.992,VALID,0,VALID,97.1223,VALID,0,VALID,19.0622,VALID,356,VALID,0,
2012-11-14, 00:11:04,VALID,917.989,VALID,0,VALID,97.1147,VALID,0.107441,VALID,19.0413,VALID,356,VALID,0,
2012-11-14, 00:12:04,VALID,917.985,VALID,0,VALID,97.1376,VALID,0,VALID,19.0622,VALID,356,VALID,0,
2012-11-14, 00:13:04,VALID,917.978,VALID,0,VALID,97.1223,VALID,0,VALID,19.0023,VALID,356,VALID,0,
2012-11-14, 00:14:04,VALID,917.968,VALID,0,VALID,97.1299,VALID,0,VALID,19.0442,VALID,356,VALID,0,
2012-11-14, 00:15:04,VALID,917.953,VALID,0,VALID,97.1071,VALID,0,VALID,18.9842,VALID,356,VALID,0,
2012-11-14, 00:16:04,VALID,917.958,VALID,0,VALID,97.0918,VALID,0,VALID,18.9842,VALID,356,VALID,0,
2012-11-14, 00:17:04,VALID,917.939,VALID,0,VALID,97.1147,VALID,0,VALID,18.9842,VALID,356,VALID,0,
2012-11-14, 00:18:04,VALID,917.915,VALID,0,VALID,97.1299,VALID,0,VALID,19.0037,VALID,356,VALID,0,
2012-11-14, 00:19:04,VALID,917.892,VALID,0,VALID,97.1223,VALID,0,VALID,19.0023,VALID,356,VALID,0,
2012-11-14, 00:20:04,VALID,917.854,VALID,0,VALID,97.1299,VALID,0,VALID,19.0023,VALID,356,VALID,0,
2012-11-14, 00:21:04,VALID,917.838,VALID,0,VALID,97.1376,VALID,0,VALID,19.0232,VALID,356,VALID,0,
2012-11-14, 00:22:04,VALID,917.816,VALID,0,VALID,97.1147,VALID,0,VALID,19.0023,VALID,356,VALID,0,
2012-11-14, 00:23:04,VALID,917.793,VALID,0,VALID,97.1376,VALID,0,VALID,19.0622,VALID,356,VALID,0,
2012-11-14, 00:24:04,VALID,917.83,VALID,0,VALID,97.1299,VALID,0,VALID,19.0218,VALID,356,VALID,0,
2012-11-14, 00:25:04,VALID,917.803,VALID,0,VALID,97.1299,VALID,0.107441,VALID,19.0817,VALID,356,VALID,0,
2012-11-14, 00:26:04,VALID,917.786,VALID,0,VALID,97.1376,VALID,0,VALID,19.0817,VALID,356,VALID,0,
2012-11-14, 00:27:04,VALID,917.769,VALID,0,VALID,97.1376,VALID,0.107441,VALID,19.1012,VALID,356,VALID,0,
2012-11-14, 00:28:04,VALID,917.764,VALID,0,VALID,97.1147,VALID,0,VALID,19.0998,VALID,356,VALID,0,
2012-11-14, 00:29:04,VALID,917.759,VALID,0,VALID,97.1147,VALID,0,VALID,19.1207,VALID,356,VALID,0,
2012-11-14, 00:30:04,VALID,917.757,VALID,0,VALID,97.1299,VALID,0,VALID,19.0803,VALID,356,VALID,0,
2012-11-14, 00:31:04,VALID,917.73,VALID,0,VALID,97.1147,VALID,0,VALID,19.1012,VALID,356,VALID,0,
2012-11-14, 00:32:04,VALID,917.728,VALID,0,VALID,97.1299,VALID,0,VALID,19.1012,VALID,356,VALID,0,
2012-11-14, 00:33:04,VALID,917.704,VALID,0,VALID,97.1299,VALID,0,VALID,19.1207,VALID,356,VALID,0,
2012-11-14, 00:34:04,VALID,917.745,VALID,0,VALID,97.1071,VALID,0,VALID,19.1207,VALID,356,VALID,0,
2012-11-14, 00:35:04,VALID,917.747,VALID,0,VALID,97.1223,VALID,0,VALID,19.1207,VALID,356,VALID,0,
2012-11-14, 00:36:04,VALID,917.754,VALID,0,VALID,97.1071,VALID,0,VALID,19.1207,VALID,356,VALID,0,
2012-11-14, 00:37:04,VALID,917.719,VALID,0,VALID,97.1071,VALID,0,VALID,19.1207,VALID,356,VALID,0,
2012-11-14, 00:38:04,VALID,917.753,VALID,0,VALID,97.1071,VALID,0,VALID,19.1012,VALID,356,VALID,0,
2012-11-14, 00:39:04,VALID,917.775,VALID,0,VALID,97.1147,VALID,0,VALID,19.1012,VALID,356,VALID,0,
2012-11-14, 00:40:04,VALID,917.748,VALID,0,VALID,97.0918,VALID,0,VALID,19.0817,VALID,356,VALID,0,
2012-11-14, 00:41:04,VALID,917.736,VALID,0,VALID,97.0766,VALID,0,VALID,19.0817,VALID,356,VALID,0,
2012-11-14, 00:42:04,VALID,917.75,VALID,0,VALID,97.0918,VALID,0,VALID,19.0622,VALID,356,VALID,0,
2012-11-14, 00:43:04,VALID,917.73,VALID,0,VALID,97.0918,VALID,0,VALID,19.0622,VALID,356,VALID,0,
2012-11-14, 00:44:04,VALID,917.704,VALID,0,VALID,97.0842,VALID,0,VALID,19.0622,VALID,356,VALID,0,
2012-11-14, 00:45:04,VALID,917.74,VALID,0,VALID,97.0994,VALID,0,VALID,19.0622,VALID,356,VALID,0,
2012-11-14, 00:46:04,VALID,917.702,VALID,0,VALID,97.0842,VALID,0,VALID,19.0232,VALID,356,VALID,0,
2012-11-14, 00:47:04,VALID,917.701,VALID,0,VALID,97.0537,VALID,0,VALID,19.0037,VALID,356,VALID,0,
2012-11-14, 00:48:04,VALID,917.704,VALID,0,VALID,97.0842,VALID,0,VALID,19.0037,VALID,356,VALID,0,
2012-11-14, 00:49:04,VALID,917.681,VALID,0,VALID,97.0842,VALID,0,VALID,19.0247,VALID,356,VALID,0,
2012-11-14, 00:50:04,VALID,917.676,VALID,0,VALID,97.0918,VALID,0,VALID,19.0232,VALID,356,VALID,0,
2012-11-14, 00:51:04,VALID,917.662,VALID,0,VALID,97.0918,VALID,0,VALID,18.9828,VALID,356,VALID,0,
2012-11-14, 00:52:04,VALID,917.625,VALID,0,VALID,97.0994,VALID,0,VALID,19.0232,VALID,356,VALID,0,
2012-11-14, 00:53:04,VALID,917.601,VALID,0,VALID,97.1147,VALID,0,VALID,19.0427,VALID,356,VALID,0,
2012-11-14, 00:54:04,VALID,917.596,VALID,0,VALID,97.1147,VALID,0,VALID,19.0622,VALID,356,VALID,0,
2012-11-14, 00:55:04,VALID,917.595,VALID,0,VALID,97.1452,VALID,0,VALID,19.1012,VALID,356,VALID,0,
2012-11-14, 00:56:05,VALID,917.565,VALID,0,VALID,97.1376,VALID,0,VALID,19.0817,VALID,356,VALID,0,
2012-11-14, 00:57:05,VALID,917.564,VALID,0,VALID,97.1528,VALID,0,VALID,19.1012,VALID,356,VALID,0,
2012-11-14, 00:58:05,VALID,917.57,VALID,0,VALID,97.1299,VALID,0,VALID,19.1012,VALID,356,VALID,0,
2012-11-14, 00:59:05,VALID,917.566,VALID,0,VALID,97.1223,VALID,0,VALID,19.0817,VALID,303,VALID,0,
2012-11-14, 01:00:05,VALID,917.594,VALID,0,VALID,97.1376,VALID,0,VALID,19.0817,VALID,303,VALID,0,
2012-11-14, 01:01:05,VALID,917.581,VALID,0,VALID,97.1528,VALID,0,VALID,19.0817,VALID,303,VALID,0,
2012-11-14, 01:02:05,VALID,917.592,VALID,0,VALID,97.1528,VALID,0,VALID,19.1222,VALID,303,VALID,0,
2012-11-14, 01:03:05,VALID,917.583,VALID,0,VALID,97.1604,VALID,0,VALID,19.0817,VALID,303,VALID,0,
2012-11-14, 01:04:05,VALID,917.614,VALID,0,VALID,97.1604,VALID,0,VALID,19.1012,VALID,303,VALID,0,
2012-11-14, 01:05:05,VALID,917.631,VALID,0,VALID,97.1604,VALID,0,VALID,19.1207,VALID,303,VALID,0,
2012-11-14, 01:06:05,VALID,917.636,VALID,0,VALID,97.1681,VALID,0,VALID,19.1402,VALID,303,VALID,0,
2012-11-14, 01:07:05,VALID,917.648,VALID,0,VALID,97.1757,VALID,0,VALID,19.1207,VALID,303,VALID,0,
2012-11-14, 01:08:05,VALID,917.661,VALID,0,VALID,97.1757,VALID,0,VALID,19.1402,VALID,303,VALID,0,
2012-11-14, 01:09:05,VALID,917.627,VALID,0,VALID,97.1757,VALID,0,VALID,19.1402,VALID,303,VALID,0,
2012-11-14, 01:10:05,VALID,917.587,VALID,0,VALID,97.1986,VALID,0,VALID,19.1402,VALID,303,VALID,0,
2012-11-14, 01:11:05,VALID,917.622,VALID,0,VALID,97.1757,VALID,0,VALID,19.1612,VALID,303,VALID,0,
2012-11-14, 01:12:05,VALID,917.607,VALID,0,VALID,97.2062,VALID,0,VALID,19.1402,VALID,303,VALID,0,
2012-11-14, 01:13:05,VALID,917.607,VALID,0,VALID,97.1909,VALID,0,VALID,19.1402,VALID,303,VALID,0,
2012-11-14, 01:14:05,VALID,917.535,VALID,0,VALID,97.1757,VALID,0,VALID,19.1207,VALID,303,VALID,0,
2012-11-14, 01:15:05,VALID,917.524,VALID,0,VALID,97.1909,VALID,0,VALID,19.1402,VALID,303,VALID,0,
2012-11-14, 01:16:05,VALID,917.545,VALID,0,VALID,97.2138,VALID,0,VALID,19.1193,VALID,303,VALID,0,
2012-11-14, 01:17:05,VALID,917.539,VALID,0,VALID,97.2062,VALID,0,VALID,19.1402,VALID,303,VALID,0,
2012-11-14, 01:18:05,VALID,917.52,VALID,0,VALID,97.229,VALID,0,VALID,19.1402,VALID,303,VALID,0,
2012-11-14, 01:19:05,VALID,917.481,VALID,0,VALID,97.2138,VALID,0,VALID,19.1402,VALID,303,VALID,0,
2012-11-14, 01:20:05,VALID,917.512,VALID,0,VALID,97.2214,VALID,0,VALID,19.1402,VALID,303,VALID,0,
2012-11-14, 01:21:05,VALID,917.464,VALID,0,VALID,97.2138,VALID,0,VALID,19.1597,VALID,303,VALID,0,
2012-11-14, 01:22:05,VALID,917.434,VALID,0,VALID,97.2443,VALID,0,VALID,19.1597,VALID,303,VALID,0,
2012-11-14, 01:23:05,VALID,917.407,VALID,0,VALID,97.2443,VALID,0,VALID,19.1597,VALID,303,VALID,0,
2012-11-14, 01:24:05,VALID,917.39,VALID,0,VALID,97.2367,VALID,0,VALID,19.1597,VALID,359,VALID,0,
2012-11-14, 01:25:05,VALID,917.388,VALID,0,VALID,97.229,VALID,0,VALID,19.1597,VALID,359,VALID,0,
2012-11-14, 01:26:05,VALID,917.352,VALID,0,VALID,97.2367,VALID,0,VALID,19.1597,VALID,359,VALID,0,
2012-11-14, 01:27:05,VALID,917.375,VALID,0,VALID,97.2595,VALID,0,VALID,19.1597,VALID,359,VALID,0,
2012-11-14, 01:28:05,VALID,917.373,VALID,0.2,VALID,97.2443,VALID,0,VALID,19.2002,VALID,359,VALID,0,
2012-11-14, 01:29:05,VALID,917.336,VALID,0,VALID,97.2443,VALID,0,VALID,19.1597,VALID,359,VALID,0,
2012-11-14, 01:30:05,VALID,917.312,VALID,0,VALID,97.2595,VALID,0,VALID,19.1792,VALID,359,VALID,0,
2012-11-14, 01:31:05,VALID,917.28,VALID,0,VALID,97.2748,VALID,0,VALID,19.1778,VALID,359,VALID,0,
2012-11-14, 01:32:05,VALID,917.278,VALID,0,VALID,97.29,VALID,0,VALID,19.1792,VALID,359,VALID,0,
2012-11-14, 01:33:05,VALID,917.262,VALID,0,VALID,97.29,VALID,0,VALID,19.2182,VALID,359,VALID,0,
2012-11-14, 01:34:05,VALID,917.276,VALID,0,VALID,97.2672,VALID,0,VALID,19.2182,VALID,359,VALID,0,
2012-11-14, 01:35:05,VALID,917.261,VALID,0,VALID,97.2595,VALID,0,VALID,19.1987,VALID,359,VALID,0,
2012-11-14, 01:36:05,VALID,917.258,VALID,0,VALID,97.2824,VALID,0,VALID,19.1987,VALID,359,VALID,0,
2012-11-14, 01:37:05,VALID,917.219,VALID,0,VALID,97.2748,VALID,0,VALID,19.1987,VALID,359,VALID,0,
2012-11-14, 01:38:05,VALID,917.189,VALID,0,VALID,97.2824,VALID,0,VALID,19.2182,VALID,359,VALID,0,
2012-11-14, 01:39:05,VALID,917.168,VALID,0,VALID,97.2824,VALID,0,VALID,19.1987,VALID,359,VALID,0,
2012-11-14, 01:40:05,VALID,917.141,VALID,0,VALID,97.3129,VALID,0,VALID,19.1973,VALID,359,VALID,0,
2012-11-14, 01:41:05,VALID,917.148,VALID,0,VALID,97.2824,VALID,0,VALID,19.1973,VALID,359,VALID,0,
2012-11-14, 01:42:05,VALID,917.168,VALID,0,VALID,97.3129,VALID,0,VALID,19.1973,VALID,359,VALID,0,
2012-11-14, 01:43:05,VALID,917.149,VALID,0,VALID,97.2977,VALID,0,VALID,19.1973,VALID,359,VALID,0,
2012-11-14, 01:44:05,VALID,917.135,VALID,0,VALID,97.29,VALID,0,VALID,19.2182,VALID,359,VALID,0,
2012-11-14, 01:45:05,VALID,917.167,VALID,0,VALID,97.3053,VALID,0,VALID,19.2182,VALID,359,VALID,0,
2012-11-14, 01:46:05,VALID,917.117,VALID,0,VALID,97.3053,VALID,0,VALID,19.1987,VALID,359,VALID,0,
2012-11-14, 01:47:05,VALID,917.116,VALID,0,VALID,97.3053,VALID,0,VALID,19.1987,VALID,359,VALID,0,
2012-11-14, 01:48:05,VALID,917.155,VALID,0,VALID,97.3129,VALID,0,VALID,19.2182,VALID,359,VALID,0,
2012-11-14, 01:49:05,VALID,917.116,VALID,0,VALID,97.3053,VALID,0,VALID,19.2182,VALID,359,VALID,0,
2012-11-14, 01:50:05,VALID,917.12,VALID,0,VALID,97.2977,VALID,0,VALID,19.1987,VALID,359,VALID,0,
2012-11-14, 01:51:05,VALID,917.127,VALID,0,VALID,97.3281,VALID,0,VALID,19.1987,VALID,359,VALID,0,
2012-11-14, 01:52:05,VALID,917.102,VALID,0,VALID,97.3205,VALID,0,VALID,19.1987,VALID,359,VALID,0,
2012-11-14, 01:53:05,VALID,917.084,VALID,0,VALID,97.3129,VALID,0,VALID,19.2182,VALID,359,VALID,0,
2012-11-14, 01:54:05,VALID,917.053,VALID,0,VALID,97.3281,VALID,0,VALID,19.2377,VALID,359,VALID,0,
2012-11-14, 01:55:05,VALID,917.048,VALID,0,VALID,97.3205,VALID,0,VALID,19.2377,VALID,18,VALID,0,
2012-11-14, 01:56:05,VALID,917.079,VALID,0,VALID,97.3358,VALID,0,VALID,19.2377,VALID,15,VALID,0,
2012-11-14, 01:57:05,VALID,917.098,VALID,0,VALID,97.3205,VALID,0,VALID,19.1973,VALID,9,VALID,0,
2012-11-14, 01:58:05,VALID,917.082,VALID,0,VALID,97.3358,VALID,0,VALID,19.1973,VALID,9,VALID,0,
2012-11-14, 01:59:05,VALID,917.1,VALID,0,VALID,97.3358,VALID,0,VALID,19.1973,VALID,6,VALID,0,
2012-11-14, 02:00:05,VALID,917.086,VALID,0,VALID,97.3281,VALID,0,VALID,19.1987,VALID,2,VALID,0,
2012-11-14, 02:01:05,VALID,917.083,VALID,0,VALID,97.3434,VALID,0,VALID,19.2377,VALID,2,VALID,0,
2012-11-14, 02:02:05,VALID,917.099,VALID,0,VALID,97.351,VALID,0,VALID,19.2377,VALID,2,VALID,0,
2012-11-14, 02:03:05,VALID,917.05,VALID,0,VALID,97.3434,VALID,0,VALID,19.2182,VALID,2,VALID,0,
2012-11-14, 02:04:05,VALID,917.086,VALID,0,VALID,97.3281,VALID,0,VALID,19.2377,VALID,2,VALID,0,
2012-11-14, 02:05:05,VALID,917.062,VALID,0,VALID,97.351,VALID,0,VALID,19.2182,VALID,2,VALID,0,
2012-11-14, 02:06:05,VALID,917.049,VALID,0,VALID,97.3358,VALID,0,VALID,19.2182,VALID,2,VALID,0,
2012-11-14, 02:07:05,VALID,917.001,VALID,0,VALID,97.3434,VALID,0,VALID,19.2182,VALID,2,VALID,0,
2012-11-14, 02:08:05,VALID,916.96,VALID,0,VALID,97.3434,VALID,0,VALID,19.2572,VALID,2,VALID,0,
2012-11-14, 02:09:05,VALID,916.873,VALID,0,VALID,97.351,VALID,0,VALID,19.2377,VALID,2,VALID,0,
2012-11-14, 02:10:05,VALID,916.807,VALID,0,VALID,97.3586,VALID,0,VALID,19.2377,VALID,232,VALID,0,
2012-11-14, 02:11:05,VALID,916.748,VALID,0,VALID,97.3663,VALID,0,VALID,19.2377,VALID,232,VALID,0,
2012-11-14, 02:12:05,VALID,916.769,VALID,0,VALID,97.3739,VALID,0,VALID,19.2182,VALID,232,VALID,0,
2012-11-14, 02:13:05,VALID,916.832,VALID,0,VALID,97.3586,VALID,0,VALID,19.2168,VALID,232,VALID,0,
2012-11-14, 02:14:05,VALID,916.826,VALID,0,VALID,97.351,VALID,0,VALID,19.2182,VALID,232,VALID,0,
2012-11-14, 02:15:05,VALID,916.87,VALID,0,VALID,97.3739,VALID,0,VALID,19.2377,VALID,232,VALID,0,
2012-11-14, 02:16:05,VALID,916.85,VALID,0,VALID,97.3586,VALID,0,VALID,19.2377,VALID,232,VALID,0,
2012-11-14, 02:17:05,VALID,916.86,VALID,0,VALID,97.351,VALID,0,VALID,19.2587,VALID,232,VALID,0,
2012-11-14, 02:18:05,VALID,916.845,VALID,0,VALID,97.3663,VALID,0,VALID,19.2377,VALID,232,VALID,0,
2012-11-14, 02:19:05,VALID,916.823,VALID,0,VALID,97.3739,VALID,0,VALID,19.2377,VALID,232,VALID,0,
2012-11-14, 02:20:05,VALID,916.808,VALID,0,VALID,97.3663,VALID,0,VALID,19.2377,VALID,232,VALID,0,
2012-11-14, 02:21:05,VALID,916.763,VALID,0,VALID,97.3586,VALID,0,VALID,19.2182,VALID,232,VALID,0,
2012-11-14, 02:22:05,VALID,916.737,VALID,0,VALID,97.3586,VALID,0,VALID,19.2377,VALID,232,VALID,0,
2012-11-14, 02:23:05,VALID,916.719,VALID,0,VALID,97.3586,VALID,0,VALID,19.2377,VALID,232,VALID,0,
2012-11-14, 02:24:05,VALID,916.721,VALID,0,VALID,97.3815,VALID,0,VALID,19.2782,VALID,232,VALID,0,
2012-11-14, 02:25:05,VALID,916.738,VALID,0,VALID,97.3739,VALID,0,VALID,19.2392,VALID,232,VALID,0,
2012-11-14, 02:26:05,VALID,916.719,VALID,0,VALID,97.3586,VALID,0,VALID,19.2572,VALID,232,VALID,0,
2012-11-14, 02:27:05,VALID,916.688,VALID,0,VALID,97.3663,VALID,0,VALID,19.2962,VALID,232,VALID,0,
2012-11-14, 02:28:05,VALID,916.672,VALID,0,VALID,97.3434,VALID,0,VALID,19.2182,VALID,232,VALID,0,
2012-11-14, 02:29:05,VALID,916.631,VALID,0,VALID,97.3586,VALID,0,VALID,19.2377,VALID,232,VALID,0,
2012-11-14, 02:30:05,VALID,916.621,VALID,0,VALID,97.3891,VALID,0,VALID,19.2377,VALID,232,VALID,0,
2012-11-14, 02:31:05,VALID,916.612,VALID,0,VALID,97.3815,VALID,0,VALID,19.2377,VALID,232,VALID,0,
2012-11-14, 02:32:05,VALID,916.589,VALID,0,VALID,97.3663,VALID,0,VALID,19.2377,VALID,232,VALID,0,
2012-11-14, 02:33:05,VALID,916.602,VALID,0,VALID,97.3815,VALID,0,VALID,19.2377,VALID,232,VALID,0,
2012-11-14, 02:34:05,VALID,916.633,VALID,0,VALID,97.3739,VALID,0,VALID,19.2377,VALID,232,VALID,0,
2012-11-14, 02:35:05,VALID,916.641,VALID,0,VALID,97.3891,VALID,0,VALID,19.2182,VALID,232,VALID,0,
2012-11-14, 02:36:05,VALID,916.612,VALID,0,VALID,97.3815,VALID,0.107441,VALID,19.2182,VALID,232,VALID,0,
2012-11-14, 02:37:05,VALID,916.617,VALID,0,VALID,97.3739,VALID,0,VALID,19.2182,VALID,232,VALID,0,
2012-11-14, 02:38:05,VALID,916.581,VALID,0,VALID,97.3739,VALID,0,VALID,19.1987,VALID,232,VALID,0,
2012-11-14, 02:39:05,VALID,916.579,VALID,0,VALID,97.351,VALID,0,VALID,19.2182,VALID,232,VALID,0,
2012-11-14, 02:40:05,VALID,916.552,VALID,0,VALID,97.3586,VALID,0,VALID,19.2182,VALID,232,VALID,0,
2012-11-14, 02:41:05,VALID,916.556,VALID,0,VALID,97.3586,VALID,0,VALID,19.1987,VALID,232,VALID,0,
2012-11-14, 02:42:05,VALID,916.577,VALID,0,VALID,97.3586,VALID,0,VALID,19.1792,VALID,232,VALID,0,
2012-11-14, 02:43:05,VALID,916.516,VALID,0,VALID,97.3586,VALID,0,VALID,19.1597,VALID,232,VALID,0,
2012-11-14, 02:44:05,VALID,916.524,VALID,0,VALID,97.3739,VALID,0,VALID,19.1792,VALID,232,VALID,0,
2012-11-14, 02:45:05,VALID,916.544,VALID,0,VALID,97.3815,VALID,0,VALID,19.1597,VALID,232,VALID,0,
2012-11-14, 02:46:05,VALID,916.539,VALID,0,VALID,97.3739,VALID,0,VALID,19.1792,VALID,232,VALID,0,
2012-11-14, 02:47:05,VALID,916.511,VALID,0,VALID,97.351,VALID,0,VALID,19.1792,VALID,232,VALID,0,
2012-11-14, 02:48:05,VALID,916.536,VALID,0,VALID,97.3815,VALID,0,VALID,19.2182,VALID,232,VALID,0,
2012-11-14, 02:49:05,VALID,916.481,VALID,0,VALID,97.3815,VALID,0,VALID,19.1987,VALID,232,VALID,0,
2012-11-14, 02:50:05,VALID,916.477,VALID,0,VALID,97.3815,VALID,0,VALID,19.1987,VALID,232,VALID,0,
2012-11-14, 02:51:05,VALID,916.486,VALID,0,VALID,97.3815,VALID,0,VALID,19.1792,VALID,232,VALID,0,
2012-11-14, 02:52:05,VALID,916.489,VALID,0,VALID,97.3968,VALID,0,VALID,19.2002,VALID,232,VALID,0,
2012-11-14, 02:53:05,VALID,916.465,VALID,0,VALID,97.3891,VALID,0,VALID,19.1987,VALID,252,VALID,0,
2012-11-14, 02:54:05,VALID,916.491,VALID,0,VALID,97.3815,VALID,0,VALID,19.1778,VALID,263,VALID,0,
2012-11-14, 02:55:05,VALID,916.507,VALID,0,VALID,97.412,VALID,0,VALID,19.1597,VALID,264,VALID,0,
2012-11-14, 02:56:05,VALID,916.513,VALID,0,VALID,97.4044,VALID,0,VALID,19.1597,VALID,264,VALID,0,
2012-11-14, 02:57:05,VALID,916.499,VALID,0,VALID,97.3891,VALID,0,VALID,19.1402,VALID,263,VALID,0,
2012-11-14, 02:58:05,VALID,916.497,VALID,0,VALID,97.3968,VALID,0,VALID,19.1402,VALID,263,VALID,0,
2012-11-14, 02:59:05,VALID,916.481,VALID,0,VALID,97.4044,VALID,0,VALID,19.1583,VALID,263,VALID,0,
2012-11-14, 03:00:05,VALID,916.486,VALID,0,VALID,97.3968,VALID,0,VALID,19.1597,VALID,263,VALID,0,
2012-11-14, 03:01:05,VALID,916.515,VALID,0,VALID,97.412,VALID,0,VALID,19.1583,VALID,263,VALID,0,
2012-11-14, 03:02:05,VALID,916.502,VALID,0,VALID,97.4044,VALID,0,VALID,19.1987,VALID,264,VALID,0,
2012-11-14, 03:03:05,VALID,916.531,VALID,0,VALID,97.4044,VALID,0,VALID,19.1792,VALID,263,VALID,0,
2012-11-14, 03:04:05,VALID,916.52,VALID,0,VALID,97.4196,VALID,0,VALID,19.1792,VALID,263,VALID,0,
2012-11-14, 03:05:05,VALID,916.516,VALID,0,VALID,97.4196,VALID,0,VALID,19.1778,VALID,263,VALID,0,
2012-11-14, 03:06:05,VALID,916.529,VALID,0,VALID,97.4273,VALID,0.107441,VALID,19.1778,VALID,263,VALID,0,
2012-11-14, 03:07:05,VALID,916.529,VALID,0,VALID,97.412,VALID,0,VALID,19.2182,VALID,263,VALID,0,
2012-11-14, 03:08:05,VALID,916.53,VALID,0,VALID,97.4425,VALID,0,VALID,19.2182,VALID,264,VALID,0,
2012-11-14, 03:09:05,VALID,916.513,VALID,0,VALID,97.4196,VALID,0,VALID,19.2168,VALID,263,VALID,0,
2012-11-14, 03:10:05,VALID,916.526,VALID,0,VALID,97.4196,VALID,0,VALID,19.1778,VALID,264,VALID,0,
2012-11-14, 03:11:05,VALID,916.528,VALID,0,VALID,97.412,VALID,0,VALID,19.1987,VALID,22,VALID,0,
2012-11-14, 03:12:05,VALID,916.522,VALID,0,VALID,97.4196,VALID,0,VALID,19.1987,VALID,22,VALID,0,
2012-11-14, 03:13:05,VALID,916.527,VALID,0,VALID,97.4425,VALID,0,VALID,19.1583,VALID,22,VALID,0,
2012-11-14, 03:14:05,VALID,916.53,VALID,0,VALID,97.4196,VALID,0,VALID,19.1987,VALID,22,VALID,0,
2012-11-14, 03:15:05,VALID,916.492,VALID,0,VALID,97.4273,VALID,0,VALID,19.1792,VALID,22,VALID,0,
2012-11-14, 03:16:05,VALID,916.492,VALID,0,VALID,97.4273,VALID,0,VALID,19.1792,VALID,22,VALID,0,
2012-11-14, 03:17:05,VALID,916.477,VALID,0,VALID,97.4349,VALID,0,VALID,19.1792,VALID,22,VALID,0,
2012-11-14, 03:18:05,VALID,916.478,VALID,0,VALID,97.4196,VALID,0,VALID,19.1792,VALID,22,VALID,0,
2012-11-14, 03:19:05,VALID,916.464,VALID,0,VALID,97.4501,VALID,0,VALID,19.1388,VALID,22,VALID,0,
2012-11-14, 03:20:05,VALID,916.483,VALID,0,VALID,97.4501,VALID,0,VALID,19.1402,VALID,22,VALID,0,
2012-11-14, 03:21:05,VALID,916.488,VALID,0,VALID,97.4196,VALID,0,VALID,19.1583,VALID,22,VALID,0,
2012-11-14, 03:22:05,VALID,916.493,VALID,0,VALID,97.4425,VALID,0,VALID,19.1597,VALID,22,VALID,0,
2012-11-14, 03:23:05,VALID,916.52,VALID,0,VALID,97.4273,VALID,0,VALID,19.1402,VALID,22,VALID,0,
2012-11-14, 03:24:05,VALID,916.503,VALID,0,VALID,97.4501,VALID,0,VALID,19.1597,VALID,22,VALID,0,
2012-11-14, 03:25:05,VALID,916.494,VALID,0,VALID,97.4425,VALID,0,VALID,19.1792,VALID,20,VALID,0,
2012-11-14, 03:26:05,VALID,916.508,VALID,0,VALID,97.4501,VALID,0,VALID,19.1597,VALID,21,VALID,0,
2012-11-14, 03:27:05,VALID,916.504,VALID,0,VALID,97.4349,VALID,0,VALID,19.1597,VALID,13,VALID,0,
2012-11-14, 03:28:05,VALID,916.522,VALID,0,VALID,97.4577,VALID,0,VALID,19.1597,VALID,13,VALID,0,
2012-11-14, 03:29:05,VALID,916.522,VALID,0,VALID,97.4501,VALID,0,VALID,19.1597,VALID,21,VALID,0,
2012-11-14, 03:30:05,VALID,916.511,VALID,0,VALID,97.4654,VALID,0,VALID,19.1987,VALID,21,VALID,0,
2012-11-14, 03:31:05,VALID,916.518,VALID,0,VALID,97.4577,VALID,0,VALID,19.1597,VALID,16,VALID,0,
2012-11-14, 03:32:05,VALID,916.527,VALID,0,VALID,97.4654,VALID,0,VALID,19.1597,VALID,23,VALID,0,
2012-11-14, 03:33:05,VALID,916.559,VALID,0,VALID,97.4577,VALID,0,VALID,19.1792,VALID,347,VALID,0,
2012-11-14, 03:34:05,VALID,916.522,VALID,0,VALID,97.473,VALID,0,VALID,19.1792,VALID,347,VALID,0,
2012-11-14, 03:35:05,VALID,916.536,VALID,0.2,VALID,97.4501,VALID,0,VALID,19.1792,VALID,347,VALID,0,
2012-11-14, 03:36:05,VALID,916.516,VALID,0,VALID,97.4654,VALID,0,VALID,19.1792,VALID,347,VALID,0,
2012-11-14, 03:37:05,VALID,916.503,VALID,0,VALID,97.4654,VALID,0,VALID,19.1597,VALID,7,VALID,0,
2012-11-14, 03:38:05,VALID,916.48,VALID,0,VALID,97.473,VALID,0,VALID,19.1583,VALID,1,VALID,0,
2012-11-14, 03:39:04,VALID,916.49,VALID,0,VALID,97.4501,VALID,0,VALID,19.1792,VALID,1,VALID,0,
2012-11-14, 03:40:04,VALID,916.455,VALID,0,VALID,97.473,VALID,0,VALID,19.1597,VALID,1,VALID,0,
2012-11-14, 03:41:04,VALID,916.459,VALID,0,VALID,97.4806,VALID,0,VALID,19.1597,VALID,18,VALID,0,
2012-11-14, 03:42:04,VALID,916.462,VALID,0,VALID,97.4806,VALID,0,VALID,19.1597,VALID,18,VALID,0,
2012-11-14, 03:43:04,VALID,916.421,VALID,0,VALID,97.473,VALID,0,VALID,19.1987,VALID,18,VALID,0,
2012-11-14, 03:44:04,VALID,916.397,VALID,0,VALID,97.4806,VALID,0,VALID,19.1987,VALID,18,VALID,0,
2012-11-14, 03:45:04,VALID,916.391,VALID,0,VALID,97.473,VALID,0,VALID,19.1807,VALID,18,VALID,0,
2012-11-14, 03:46:04,VALID,916.401,VALID,0,VALID,97.4806,VALID,0,VALID,19.1792,VALID,18,VALID,0,
2012-11-14, 03:47:04,VALID,916.356,VALID,0,VALID,97.4806,VALID,0,VALID,19.1792,VALID,18,VALID,0,
2012-11-14, 03:48:04,VALID,916.362,VALID,0,VALID,97.5035,VALID,0,VALID,19.1807,VALID,18,VALID,0,
2012-11-14, 03:49:04,VALID,916.353,VALID,0,VALID,97.4882,VALID,0,VALID,19.1597,VALID,18,VALID,0,
2012-11-14, 03:50:04,VALID,916.341,VALID,0,VALID,97.4882,VALID,0,VALID,19.1792,VALID,18,VALID,0,
2012-11-14, 03:51:04,VALID,916.359,VALID,0,VALID,97.4577,VALID,0,VALID,19.1792,VALID,18,VALID,0,
2012-11-14, 03:52:04,VALID,916.371,VALID,0,VALID,97.5035,VALID,0,VALID,19.1597,VALID,18,VALID,0,
2012-11-14, 03:53:04,VALID,916.334,VALID,0.2,VALID,97.4654,VALID,0,VALID,19.1792,VALID,18,VALID,0,
2012-11-14, 03:54:04,VALID,916.356,VALID,0,VALID,97.4806,VALID,0,VALID,19.1402,VALID,18,VALID,0,
2012-11-14, 03:55:04,VALID,916.377,VALID,0,VALID,97.4654,VALID,0,VALID,19.1597,VALID,18,VALID,0,
2012-11-14, 03:56:04,VALID,916.379,VALID,0,VALID,97.473,VALID,0,VALID,19.1597,VALID,18,VALID,0,
2012-11-14, 03:57:04,VALID,916.403,VALID,0,VALID,97.4806,VALID,0,VALID,19.1597,VALID,18,VALID,0,
2012-11-14, 03:58:04,VALID,916.387,VALID,0,VALID,97.473,VALID,0,VALID,19.1597,VALID,18,VALID,0,
2012-11-14, 03:59:04,VALID,916.396,VALID,0,VALID,97.4654,VALID,0,VALID,19.1388,VALID,18,VALID,0,
2012-11-14, 04:00:04,VALID,916.398,VALID,0,VALID,97.473,VALID,0,VALID,19.1807,VALID,18,VALID,0,